CW6451 Weather Reports


Display with metric or nautical units.
time (UTC)temp
F
wind
direction
speed
MPH
gust
MPH
rain 1hr
in
rain 24hr
in
rain mn
in
humidity
%
barometer
mb
20260504081537 47 211 1.0 6.0 0.00 0.00 0.00 72 1012.0
20260504044541 44 215 0.0 3.0 0.00 0.00 0.00 72 1011.7
20260504043048 44 0 0.0 3.0 0.00 0.00 0.00 71 1011.8
20260504041538 45 232 0.0 5.0 0.00 0.00 0.00 72 1011.9
20260504040038 44 203 0.0 3.0 0.00 0.00 0.00 74 1011.8
20260504034536 44 209 2.0 5.0 0.00 0.00 0.00 72 1011.7
20260504033038 43 187 1.0 4.0 0.00 0.00 0.00 69 1011.6
20260504031545 43 0 0.0 2.0 0.00 0.00 0.00 68 1011.5
20260504030043 43 0 0.0 2.0 0.00 0.00 0.00 69 1011.4
20260504024539 43 0 0.0 1.0 0.00 0.00 0.00 68 1011.5
20260504023040 43 0 0.0 2.0 0.00 0.00 0.00 67 1011.4
20260504021537 44 0 0.0 2.0 0.00 0.00 0.00 64 1011.5
20260504020043 44 271 0.0 2.0 0.00 0.00 0.00 62 1011.4
20260504014542 45 0 0.0 2.0 0.00 0.00 0.00 62 1011.2
20260504013050 45 271 0.0 2.0 0.00 0.00 0.00 60 1011.1
20260504011539 46 0 0.0 3.0 0.00 0.00 0.00 61 1010.9
20260504010041 47 271 0.0 3.0 0.00 0.00 0.00 60 1010.6
20260504004538 48 275 1.0 8.0 0.00 0.01 0.00 55 1010.4
20260504003038 49 0 1.0 7.0 0.00 0.01 0.00 51 1010.2
20260504001540 50 306 2.0 8.0 0.00 0.01 0.00 51 1010.0
20260504000042 50 264 4.0 13.0 0.00 0.01 0.00 48 1009.9
20260503234539 51 309 5.0 11.0 0.00 0.02 0.00 46 1009.7
20260503233041 51 355 6.0 12.0 0.00 0.02 0.00 45 1009.6
20260503231544 52 284 7.0 16.0 0.00 0.02 0.00 46 1009.4
20260503230048 53 303 6.0 16.0 0.00 0.02 0.00 45 1009.0
20260503224540 54 293 7.0 17.0 0.00 0.02 0.00 43 1008.9
20260503223041 53 304 5.0 16.0 0.00 0.02 0.00 46 1008.8
20260503221538 53 285 9.0 19.0 0.00 0.02 0.00 45 1008.7
20260503220039 53 315 7.0 18.0 0.00 0.02 0.00 43 1008.4
20260503214536 53 344 8.0 16.0 0.00 0.02 0.00 46 1008.2
20260503213037 53 15 8.0 20.0 0.00 0.02 0.00 45 1008.1
20260503211544 54 280 8.0 18.0 0.00 0.02 0.00 44 1007.9
20260503210041 55 329 7.0 17.0 0.00 0.02 0.00 45 1007.6
20260503204537 55 323 6.0 17.0 0.00 0.02 0.00 46 1007.4
20260503203041 54 325 7.0 18.0 0.00 0.02 0.00 46 1007.3
20260503201538 54 299 8.0 20.0 0.00 0.02 0.00 46 1007.1
20260503200037 56 296 5.0 18.0 0.00 0.02 0.00 46 1006.9
20260503194537 53 280 10.0 22.0 0.00 0.02 0.00 45 1006.8
20260503193045 54 234 6.0 16.0 0.00 0.02 0.00 48 1006.8
20260503191539 54 17 8.0 19.0 0.00 0.02 0.00 45 1006.8
20260503190037 53 317 6.0 22.0 0.00 0.02 0.00 49 1006.8
20260503184555 53 352 7.0 15.0 0.00 0.02 0.00 50 1006.9
20260503183045 52 315 7.0 18.0 0.00 0.02 0.00 54 1007.0
20260503181542 53 315 5.0 14.0 0.00 0.02 0.00 52 1006.8
20260503180052 54 53 5.0 15.0 0.00 0.02 0.00 53 1006.8
20260503174542 54 355 6.0 15.0 0.00 0.02 0.00 56 1006.8
20260503173046 54 14 9.0 19.0 0.00 0.02 0.00 55 1006.9
20260503171537 52 342 10.0 22.0 0.00 0.02 0.00 59 1007.0